000000,13.0014, 25 Oct 2015, 00:00:34
000030,13.0001, 25 Oct 2015, 00:01:04
000100,12.9986, 25 Oct 2015, 00:01:34
000130,12.9963, 25 Oct 2015, 00:02:05
000200,12.9935, 25 Oct 2015, 00:02:34
000230,12.99, 25 Oct 2015, 00:03:04
000300,12.9854, 25 Oct 2015, 00:03:34
000330,12.9815, 25 Oct 2015, 00:04:04
000400,12.9774, 25 Oct 2015, 00:04:35
000430,12.9746, 25 Oct 2015, 00:05:04
000500,12.9716, 25 Oct 2015, 00:05:34
000530,12.9681, 25 Oct 2015, 00:06:04
000600,12.9646, 25 Oct 2015, 00:06:35
000630,12.9609, 25 Oct 2015, 00:07:04
000700,12.9554, 25 Oct 2015, 00:07:34
000730,12.949, 25 Oct 2015, 00:08:04
000800,12.9421, 25 Oct 2015, 00:08:34
000830,12.9318, 25 Oct 2015, 00:09:04
000900,12.9184, 25 Oct 2015, 00:09:34
000930,12.9042, 25 Oct 2015, 00:10:04
001000,12.8904, 25 Oct 2015, 00:10:34
001030,12.8777, 25 Oct 2015, 00:11:03
001100,12.8664, 25 Oct 2015, 00:11:34
001130,12.8576, 25 Oct 2015, 00:12:04
001200,12.8506, 25 Oct 2015, 00:12:34
001230,12.8466, 25 Oct 2015, 00:13:04
001300,12.8442, 25 Oct 2015, 00:13:34
001330,12.8427, 25 Oct 2015, 00:14:04
001400,12.8419, 25 Oct 2015, 00:14:34
001430,12.8426, 25 Oct 2015, 00:15:04
001500,12.8447, 25 Oct 2015, 00:15:34
001530,12.8492, 25 Oct 2015, 00:16:04
001600,12.8548, 25 Oct 2015, 00:16:34
001630,12.8591, 25 Oct 2015, 00:17:03
001700,12.8613, 25 Oct 2015, 00:17:34
001730,12.8623, 25 Oct 2015, 00:18:04
001800,12.864, 25 Oct 2015, 00:18:34
001900,12.864, 25 Oct 2015, 00:19:33
001930,12.8631, 25 Oct 2015, 00:20:04
002000,12.8621, 25 Oct 2015, 00:20:34
002030,12.8622, 25 Oct 2015, 00:21:04
002100,12.8628, 25 Oct 2015, 00:21:33
002130,12.8647, 25 Oct 2015, 00:22:04
002200,12.8698, 25 Oct 2015, 00:22:34
002230,12.8739, 25 Oct 2015, 00:23:04
002300,12.8742, 25 Oct 2015, 00:23:33
002330,12.869, 25 Oct 2015, 00:24:04
002400,12.8631, 25 Oct 2015, 00:24:34
002430,12.8588, 25 Oct 2015, 00:25:04
002500,12.8601, 25 Oct 2015, 00:25:33
002530,12.8641, 25 Oct 2015, 00:26:03
002600,12.8684, 25 Oct 2015, 00:26:34
002700,12.8769, 25 Oct 2015, 00:27:34
002730,12.882, 25 Oct 2015, 00:28:04
002800,12.8865, 25 Oct 2015, 00:28:35
002830,12.8904, 25 Oct 2015, 00:29:05
002900,12.8918, 25 Oct 2015, 00:29:34
002930,12.8867, 25 Oct 2015, 00:30:04
003000,12.8765, 25 Oct 2015, 00:30:35
003030,12.865, 25 Oct 2015, 00:31:05
003100,12.8553, 25 Oct 2015, 00:31:34
003130,12.8457, 25 Oct 2015, 00:32:04
003200,12.8382, 25 Oct 2015, 00:32:35
003230,12.8316, 25 Oct 2015, 00:33:05
003300,12.8252, 25 Oct 2015, 00:33:34
003330,12.8193, 25 Oct 2015, 00:34:04
003400,12.8117, 25 Oct 2015, 00:34:35
003430,12.8044, 25 Oct 2015, 00:35:05
003500,12.7975, 25 Oct 2015, 00:35:34
003530,12.7906, 25 Oct 2015, 00:36:04
003600,12.7831, 25 Oct 2015, 00:36:34
003630,12.7777, 25 Oct 2015, 00:37:05
003700,12.77, 25 Oct 2015, 00:37:34
003730,12.7623, 25 Oct 2015, 00:38:04
003800,12.7546, 25 Oct 2015, 00:38:34
003830,12.7473, 25 Oct 2015, 00:39:05
003900,12.7399, 25 Oct 2015, 00:39:34
003930,12.7336, 25 Oct 2015, 00:40:04
004000,12.7269, 25 Oct 2015, 00:40:34
004030,12.7208, 25 Oct 2015, 00:41:05
004100,12.7168, 25 Oct 2015, 00:41:34
004130,12.714, 25 Oct 2015, 00:42:04
004200,12.7138, 25 Oct 2015, 00:42:34
004230,12.715, 25 Oct 2015, 00:43:05
004300,12.7179, 25 Oct 2015, 00:43:34
004330,12.7227, 25 Oct 2015, 00:44:04
004400,12.7299, 25 Oct 2015, 00:44:34
004430,12.7394, 25 Oct 2015, 00:45:04
004500,12.7502, 25 Oct 2015, 00:45:35
004530,12.764, 25 Oct 2015, 00:46:04
004600,12.7849, 25 Oct 2015, 00:46:34
004630,12.8067, 25 Oct 2015, 00:47:04
004700,12.8218, 25 Oct 2015, 00:47:34
004730,12.8355, 25 Oct 2015, 00:48:04
004800,12.8491, 25 Oct 2015, 00:48:34
004830,12.864, 25 Oct 2015, 00:49:04
004900,12.8774, 25 Oct 2015, 00:49:34
004930,12.8933, 25 Oct 2015, 00:50:04
005000,12.9108, 25 Oct 2015, 00:50:34
005030,12.9286, 25 Oct 2015, 00:51:04
005100,12.9468, 25 Oct 2015, 00:51:34
005130,12.9658, 25 Oct 2015, 00:52:04
005200,12.9824, 25 Oct 2015, 00:52:34
005230,12.9984, 25 Oct 2015, 00:53:04
005300,13.0149, 25 Oct 2015, 00:53:34
005330,13.0305, 25 Oct 2015, 00:54:04
005400,13.0461, 25 Oct 2015, 00:54:34
005430,13.062, 25 Oct 2015, 00:55:04
005500,13.0793, 25 Oct 2015, 00:55:34
005600,13.115, 25 Oct 2015, 00:56:34
005630,13.1312, 25 Oct 2015, 00:57:04
005700,13.1471, 25 Oct 2015, 00:57:34
005730,13.162, 25 Oct 2015, 00:58:03
005800,13.1767, 25 Oct 2015, 00:58:34
005830,13.1907, 25 Oct 2015, 00:59:04
005900,13.2028, 25 Oct 2015, 00:59:34
005930,13.2033, 25 Oct 2015, 01:00:04
010000,13.1989, 25 Oct 2015, 01:00:33
010030,13.1941, 25 Oct 2015, 01:01:04
010100,13.1916, 25 Oct 2015, 01:01:34
010130,13.1929, 25 Oct 2015, 01:02:04
010200,13.1954, 25 Oct 2015, 01:02:34
010230,13.201, 25 Oct 2015, 01:03:03
010300,13.2065, 25 Oct 2015, 01:03:34
010330,13.2117, 25 Oct 2015, 01:04:04
010400,13.2177, 25 Oct 2015, 01:04:34
010500,13.2212, 25 Oct 2015, 01:05:33
010530,13.2222, 25 Oct 2015, 01:06:04
010600,13.2249, 25 Oct 2015, 01:06:34
010630,13.2293, 25 Oct 2015, 01:07:03
010700,13.2365, 25 Oct 2015, 01:07:33
010730,13.2452, 25 Oct 2015, 01:08:03
010800,13.2543, 25 Oct 2015, 01:08:34
010830,13.2643, 25 Oct 2015, 01:09:04
010900,13.2748, 25 Oct 2015, 01:09:33
010930,13.2834, 25 Oct 2015, 01:10:03
011000,13.2902, 25 Oct 2015, 01:10:34
011030,13.2963, 25 Oct 2015, 01:11:04
011100,13.3048, 25 Oct 2015, 01:11:34
011130,13.3198, 25 Oct 2015, 01:12:03
011200,13.3348, 25 Oct 2015, 01:12:33
011230,13.348, 25 Oct 2015, 01:13:04
011300,13.3539, 25 Oct 2015, 01:13:34
011330,13.3518, 25 Oct 2015, 01:14:03
011400,13.3531, 25 Oct 2015, 01:14:33
011430,13.3635, 25 Oct 2015, 01:15:04
011500,13.3752, 25 Oct 2015, 01:15:34
011530,13.3777, 25 Oct 2015, 01:16:04
011600,13.3804, 25 Oct 2015, 01:16:33
011630,13.388, 25 Oct 2015, 01:17:04
011700,13.3995, 25 Oct 2015, 01:17:35
011730,13.4127, 25 Oct 2015, 01:18:04
011800,13.4272, 25 Oct 2015, 01:18:34
011830,13.4474, 25 Oct 2015, 01:19:04
011900,13.4732, 25 Oct 2015, 01:19:35
012000,13.519, 25 Oct 2015, 01:20:34
012030,13.5333, 25 Oct 2015, 01:21:04
012100,13.5433, 25 Oct 2015, 01:21:34
012130,13.5345, 25 Oct 2015, 01:22:05
012200,13.523, 25 Oct 2015, 01:22:34
012230,13.518, 25 Oct 2015, 01:23:04
012300,13.5223, 25 Oct 2015, 01:23:34
012330,13.5348, 25 Oct 2015, 01:24:05
012400,13.5485, 25 Oct 2015, 01:24:34
012430,13.5665, 25 Oct 2015, 01:25:04
012500,13.5892, 25 Oct 2015, 01:25:34
012530,13.6103, 25 Oct 2015, 01:26:05
012630,13.6417, 25 Oct 2015, 01:27:04
012700,13.6549, 25 Oct 2015, 01:27:34
012730,13.6702, 25 Oct 2015, 01:28:05
012800,13.6873, 25 Oct 2015, 01:28:34
012830,13.7068, 25 Oct 2015, 01:29:04
012900,13.7327, 25 Oct 2015, 01:29:34
012930,13.7611, 25 Oct 2015, 01:30:04
013000,13.7826, 25 Oct 2015, 01:30:34
013030,13.7989, 25 Oct 2015, 01:31:04
013100,13.8125, 25 Oct 2015, 01:31:34
013130,13.8243, 25 Oct 2015, 01:32:04
013200,13.838, 25 Oct 2015, 01:32:34
013230,13.8441, 25 Oct 2015, 01:33:04
013300,13.8495, 25 Oct 2015, 01:33:34
013330,13.8509, 25 Oct 2015, 01:34:04
013400,13.8516, 25 Oct 2015, 01:34:34
013430,13.8541, 25 Oct 2015, 01:35:04
013500,13.8595, 25 Oct 2015, 01:35:34
013530,13.869, 25 Oct 2015, 01:36:04
013630,13.897, 25 Oct 2015, 01:37:04
013700,13.9134, 25 Oct 2015, 01:37:34
013730,13.9288, 25 Oct 2015, 01:38:04
013800,13.9419, 25 Oct 2015, 01:38:33
013830,13.9547, 25 Oct 2015, 01:39:04
013900,13.9688, 25 Oct 2015, 01:39:34
013930,13.9812, 25 Oct 2015, 01:40:04
014000,13.9934, 25 Oct 2015, 01:40:33
014030,14.009, 25 Oct 2015, 01:41:04
014100,14.0261, 25 Oct 2015, 01:41:34
014130,14.0392, 25 Oct 2015, 01:42:04
014200,14.0449, 25 Oct 2015, 01:42:34
014230,14.0486, 25 Oct 2015, 01:43:03
014300,14.0559, 25 Oct 2015, 01:43:34
014330,14.0652, 25 Oct 2015, 01:44:04
014400,14.0784, 25 Oct 2015, 01:44:34
014500,14.1132, 25 Oct 2015, 01:45:34
014530,14.1287, 25 Oct 2015, 01:46:04
014600,14.1427, 25 Oct 2015, 01:46:34
014630,14.156, 25 Oct 2015, 01:47:03
014700,14.1692, 25 Oct 2015, 01:47:33
014730,14.1826, 25 Oct 2015, 01:48:04
014800,14.1961, 25 Oct 2015, 01:48:34
014900,14.2257, 25 Oct 2015, 01:49:33
014930,14.2411, 25 Oct 2015, 01:50:03
015000,14.2548, 25 Oct 2015, 01:50:34
015030,14.2665, 25 Oct 2015, 01:51:04
015100,14.2757, 25 Oct 2015, 01:51:33
015130,14.2818, 25 Oct 2015, 01:52:03
015200,14.2801, 25 Oct 2015, 01:52:34
015230,14.2746, 25 Oct 2015, 01:53:04
015300,14.2679, 25 Oct 2015, 01:53:33
015330,14.2636, 25 Oct 2015, 01:54:03
015400,14.2605, 25 Oct 2015, 01:54:34
015430,14.2573, 25 Oct 2015, 01:55:04
015500,14.2541, 25 Oct 2015, 01:55:34
015530,14.2495, 25 Oct 2015, 01:56:03
015600,14.2443, 25 Oct 2015, 01:56:33
015630,14.2374, 25 Oct 2015, 01:57:05
015700,14.2312, 25 Oct 2015, 01:57:34
015730,14.2264, 25 Oct 2015, 01:58:04
015800,14.2236, 25 Oct 2015, 01:58:34
015830,14.2221, 25 Oct 2015, 01:59:05
015900,14.2216, 25 Oct 2015, 01:59:34
015930,14.2224, 25 Oct 2015, 02:00:04
020000,14.2257, 25 Oct 2015, 02:00:34
020030,14.2311, 25 Oct 2015, 02:01:04
020100,14.2384, 25 Oct 2015, 02:01:35
020130,14.2464, 25 Oct 2015, 02:02:04
020200,14.2566, 25 Oct 2015, 02:02:34
020230,14.2671, 25 Oct 2015, 02:03:04
020300,14.2764, 25 Oct 2015, 02:03:35
020330,14.2859, 25 Oct 2015, 02:04:05
020400,14.2935, 25 Oct 2015, 02:04:34
020430,14.299, 25 Oct 2015, 02:05:04
020500,14.3032, 25 Oct 2015, 02:05:34
020530,14.3051, 25 Oct 2015, 02:06:05
020630,14.3115, 25 Oct 2015, 02:07:04
020700,14.3172, 25 Oct 2015, 02:07:34
020730,14.3243, 25 Oct 2015, 02:08:04
020800,14.3319, 25 Oct 2015, 02:08:34
020830,14.3394, 25 Oct 2015, 02:09:04
020900,14.3478, 25 Oct 2015, 02:09:34
020930,14.3558, 25 Oct 2015, 02:10:04
021000,14.3644, 25 Oct 2015, 02:10:35
021030,14.372, 25 Oct 2015, 02:11:04
021100,14.3797, 25 Oct 2015, 02:11:34
021130,14.3875, 25 Oct 2015, 02:12:04
021200,14.3949, 25 Oct 2015, 02:12:34
021230,14.4029, 25 Oct 2015, 02:13:04
021300,14.409, 25 Oct 2015, 02:13:34
021330,14.4147, 25 Oct 2015, 02:14:04
021400,14.4198, 25 Oct 2015, 02:14:34
021430,14.4242, 25 Oct 2015, 02:15:05
021500,14.4281, 25 Oct 2015, 02:15:34
021530,14.4305, 25 Oct 2015, 02:16:04
021600,14.4293, 25 Oct 2015, 02:16:34
021630,14.4234, 25 Oct 2015, 02:17:03
021700,14.4105, 25 Oct 2015, 02:17:34
021730,14.3943, 25 Oct 2015, 02:18:04
021800,14.3815, 25 Oct 2015, 02:18:34
021900,14.3676, 25 Oct 2015, 02:19:34
021930,14.3645, 25 Oct 2015, 02:20:04
022000,14.3633, 25 Oct 2015, 02:20:34
022030,14.3614, 25 Oct 2015, 02:21:04
022100,14.3593, 25 Oct 2015, 02:21:33
022130,14.3593, 25 Oct 2015, 02:22:04
022200,14.3594, 25 Oct 2015, 02:22:34
022230,14.3595, 25 Oct 2015, 02:23:04
022300,14.3609, 25 Oct 2015, 02:23:33
022330,14.3614, 25 Oct 2015, 02:24:04
022400,14.3538, 25 Oct 2015, 02:24:34
022430,14.3387, 25 Oct 2015, 02:25:04
022500,14.324, 25 Oct 2015, 02:25:34
022530,14.3126, 25 Oct 2015, 02:26:03
022600,14.3066, 25 Oct 2015, 02:26:34
022630,14.3042, 25 Oct 2015, 02:27:04
022700,14.3024, 25 Oct 2015, 02:27:33
022730,14.3013, 25 Oct 2015, 02:28:03
022800,14.299, 25 Oct 2015, 02:28:34
022830,14.2967, 25 Oct 2015, 02:29:04
022900,14.2943, 25 Oct 2015, 02:29:34
022930,14.2919, 25 Oct 2015, 02:30:03
023000,14.2897, 25 Oct 2015, 02:30:33
023030,14.2872, 25 Oct 2015, 02:31:04
023100,14.2849, 25 Oct 2015, 02:31:34
023130,14.2838, 25 Oct 2015, 02:32:03
023200,14.2831, 25 Oct 2015, 02:32:33
023230,14.281, 25 Oct 2015, 02:33:04
023300,14.2714, 25 Oct 2015, 02:33:34
023400,14.2518, 25 Oct 2015, 02:34:33
023430,14.2434, 25 Oct 2015, 02:35:04
023500,14.2361, 25 Oct 2015, 02:35:34
023530,14.2317, 25 Oct 2015, 02:36:04
023600,14.2299, 25 Oct 2015, 02:36:33
023630,14.2296, 25 Oct 2015, 02:37:04
023700,14.2301, 25 Oct 2015, 02:37:35
023730,14.2264, 25 Oct 2015, 02:38:04
023800,14.2194, 25 Oct 2015, 02:38:34
023830,14.2149, 25 Oct 2015, 02:39:04
023900,14.2111, 25 Oct 2015, 02:39:35
023930,14.2086, 25 Oct 2015, 02:40:05
024000,14.2045, 25 Oct 2015, 02:40:34
024030,14.1989, 25 Oct 2015, 02:41:04
024100,14.1939, 25 Oct 2015, 02:41:34
024130,14.1901, 25 Oct 2015, 02:42:05
024200,14.1877, 25 Oct 2015, 02:42:34
024230,14.1857, 25 Oct 2015, 02:43:04
024300,14.183, 25 Oct 2015, 02:43:34
024330,14.1796, 25 Oct 2015, 02:44:05
024400,14.1746, 25 Oct 2015, 02:44:35
024430,14.1685, 25 Oct 2015, 02:45:04
024500,14.1605, 25 Oct 2015, 02:45:34
024530,14.1481, 25 Oct 2015, 02:46:04
024600,14.1314, 25 Oct 2015, 02:46:35
024630,14.1144, 25 Oct 2015, 02:47:04
024700,14.0861, 25 Oct 2015, 02:47:34
024730,14.0542, 25 Oct 2015, 02:48:04
024800,14.023, 25 Oct 2015, 02:48:35
024830,13.9933, 25 Oct 2015, 02:49:04
024900,13.9636, 25 Oct 2015, 02:49:34
024930,13.9343, 25 Oct 2015, 02:50:04
025000,13.9026, 25 Oct 2015, 02:50:34
025030,13.868, 25 Oct 2015, 02:51:04
025100,13.8294, 25 Oct 2015, 02:51:34
025130,13.7922, 25 Oct 2015, 02:52:04
025200,13.7582, 25 Oct 2015, 02:52:34
025230,13.7287, 25 Oct 2015, 02:53:04
025300,13.7007, 25 Oct 2015, 02:53:34
025330,13.6745, 25 Oct 2015, 02:54:04
025400,13.6499, 25 Oct 2015, 02:54:34
025430,13.6267, 25 Oct 2015, 02:55:04
025500,13.6016, 25 Oct 2015, 02:55:34
025530,13.5756, 25 Oct 2015, 02:56:04
025600,13.5499, 25 Oct 2015, 02:56:34
025630,13.5262, 25 Oct 2015, 02:57:04
025700,13.5008, 25 Oct 2015, 02:57:34
025730,13.4721, 25 Oct 2015, 02:58:04
025800,13.4373, 25 Oct 2015, 02:58:34
025830,13.4003, 25 Oct 2015, 02:59:03
025900,13.3607, 25 Oct 2015, 02:59:34
025930,13.3238, 25 Oct 2015, 03:00:04
030000,13.2862, 25 Oct 2015, 03:00:34
030030,13.2505, 25 Oct 2015, 03:01:03
030100,13.214, 25 Oct 2015, 03:01:34
030130,13.1744, 25 Oct 2015, 03:02:04
030200,13.136, 25 Oct 2015, 03:02:34
030230,13.1024, 25 Oct 2015, 03:03:04
030300,13.0739, 25 Oct 2015, 03:03:33
030330,13.0508, 25 Oct 2015, 03:04:04
030400,13.0323, 25 Oct 2015, 03:04:34
030430,13.0163, 25 Oct 2015, 03:05:04
030500,13.0036, 25 Oct 2015, 03:05:34
030530,12.9886, 25 Oct 2015, 03:06:04
030600,12.9728, 25 Oct 2015, 03:06:34
030630,12.9594, 25 Oct 2015, 03:07:04
030700,12.9503, 25 Oct 2015, 03:07:34
030730,12.9437, 25 Oct 2015, 03:08:03
030800,12.9371, 25 Oct 2015, 03:08:33
030830,12.9329, 25 Oct 2015, 03:09:04
030900,12.9281, 25 Oct 2015, 03:09:34
031000,12.905, 25 Oct 2015, 03:10:33
031030,12.8945, 25 Oct 2015, 03:11:04
031100,12.8889, 25 Oct 2015, 03:11:34
031130,12.8806, 25 Oct 2015, 03:12:04
031200,12.8683, 25 Oct 2015, 03:12:33
031230,12.852, 25 Oct 2015, 03:13:04
031300,12.8328, 25 Oct 2015, 03:13:34
031330,12.8169, 25 Oct 2015, 03:14:04
031400,12.8052, 25 Oct 2015, 03:14:33
031430,12.7975, 25 Oct 2015, 03:15:03
031500,12.7915, 25 Oct 2015, 03:15:34
031530,12.7912, 25 Oct 2015, 03:16:04
031600,12.7947, 25 Oct 2015, 03:16:33
031630,12.8011, 25 Oct 2015, 03:17:04
031700,12.8089, 25 Oct 2015, 03:17:35
031730,12.8205, 25 Oct 2015, 03:18:04
031800,12.8286, 25 Oct 2015, 03:18:34
031830,12.7911, 25 Oct 2015, 03:19:04
031900,12.7336, 25 Oct 2015, 03:19:35
031930,12.6836, 25 Oct 2015, 03:20:05
032000,12.6503, 25 Oct 2015, 03:20:34
032030,12.6337, 25 Oct 2015, 03:21:04
032100,12.6318, 25 Oct 2015, 03:21:35
032130,12.6425, 25 Oct 2015, 03:22:05
032200,12.6596, 25 Oct 2015, 03:22:34
032230,12.6813, 25 Oct 2015, 03:23:04
032300,12.7032, 25 Oct 2015, 03:23:34
032330,12.7251, 25 Oct 2015, 03:24:05
032400,12.7442, 25 Oct 2015, 03:24:34
032430,12.7614, 25 Oct 2015, 03:25:04
032500,12.7774, 25 Oct 2015, 03:25:34
032530,12.7927, 25 Oct 2015, 03:26:05
032600,12.805, 25 Oct 2015, 03:26:34
032630,12.8151, 25 Oct 2015, 03:27:04
032700,12.8223, 25 Oct 2015, 03:27:34
032730,12.8277, 25 Oct 2015, 03:28:05
032800,12.8308, 25 Oct 2015, 03:28:34
032830,12.8316, 25 Oct 2015, 03:29:04
032900,12.8318, 25 Oct 2015, 03:29:34
032930,12.831, 25 Oct 2015, 03:30:05
033000,12.8221, 25 Oct 2015, 03:30:34
033030,12.8167, 25 Oct 2015, 03:31:04
033100,12.8171, 25 Oct 2015, 03:31:34
033130,12.8199, 25 Oct 2015, 03:32:05
033200,12.8206, 25 Oct 2015, 03:32:34
033230,12.817, 25 Oct 2015, 03:33:04
033300,12.8153, 25 Oct 2015, 03:33:34
033330,12.8146, 25 Oct 2015, 03:34:04
033400,12.8099, 25 Oct 2015, 03:34:34
033430,12.8027, 25 Oct 2015, 03:35:04
033500,12.7966, 25 Oct 2015, 03:35:34
033530,12.7849, 25 Oct 2015, 03:36:04
033600,12.7613, 25 Oct 2015, 03:36:34
033630,12.7116, 25 Oct 2015, 03:37:04
033700,12.6592, 25 Oct 2015, 03:37:34
033800,12.5577, 25 Oct 2015, 03:38:34
033830,12.5185, 25 Oct 2015, 03:39:04
033900,12.5039, 25 Oct 2015, 03:39:34
033930,12.4753, 25 Oct 2015, 03:40:04
034000,12.4473, 25 Oct 2015, 03:40:34
034030,12.3501, 25 Oct 2015, 03:41:04
034100,12.2358, 25 Oct 2015, 03:41:34
034130,12.1362, 25 Oct 2015, 03:42:04
034200,12.0597, 25 Oct 2015, 03:42:33
034230,11.9951, 25 Oct 2015, 03:43:04
034300,11.9366, 25 Oct 2015, 03:43:34
034330,11.8824, 25 Oct 2015, 03:44:04
034400,11.8324, 25 Oct 2015, 03:44:34
034430,11.7993, 25 Oct 2015, 03:45:04
034500,11.7783, 25 Oct 2015, 03:45:34
034530,11.764, 25 Oct 2015, 03:46:04
034600,11.7502, 25 Oct 2015, 03:46:34
034630,11.7343, 25 Oct 2015, 03:47:04
034700,11.7193, 25 Oct 2015, 03:47:34
034730,11.7096, 25 Oct 2015, 03:48:04
034800,11.7042, 25 Oct 2015, 03:48:33
034830,11.7014, 25 Oct 2015, 03:49:04
034900,11.6994, 25 Oct 2015, 03:49:34
034930,11.6996, 25 Oct 2015, 03:50:04
035000,11.7, 25 Oct 2015, 03:50:33
035030,11.7007, 25 Oct 2015, 03:51:03
035100,11.7013, 25 Oct 2015, 03:51:34
035130,11.7, 25 Oct 2015, 03:52:04
035200,11.7, 25 Oct 2015, 03:52:33
035230,11.6967, 25 Oct 2015, 03:53:03
035300,11.6922, 25 Oct 2015, 03:53:34
035330,11.6892, 25 Oct 2015, 03:54:04
035430,11.6828, 25 Oct 2015, 03:55:03
035500,11.6772, 25 Oct 2015, 03:55:34
035530,11.6724, 25 Oct 2015, 03:56:04
035600,11.6672, 25 Oct 2015, 03:56:34
035630,11.6638, 25 Oct 2015, 03:57:03
035700,11.6602, 25 Oct 2015, 03:57:35
035730,11.6562, 25 Oct 2015, 03:58:05
035800,11.6515, 25 Oct 2015, 03:58:34
035830,11.6457, 25 Oct 2015, 03:59:04
035900,11.6316, 25 Oct 2015, 03:59:35
035930,11.6198, 25 Oct 2015, 04:00:05
040000,11.6104, 25 Oct 2015, 04:00:34
040030,11.6027, 25 Oct 2015, 04:01:04
040100,11.5974, 25 Oct 2015, 04:01:34
040130,11.5951, 25 Oct 2015, 04:02:05
040200,11.5956, 25 Oct 2015, 04:02:35
040230,11.5978, 25 Oct 2015, 04:03:04
040300,11.6033, 25 Oct 2015, 04:03:34
040330,11.6121, 25 Oct 2015, 04:04:05
040400,11.6204, 25 Oct 2015, 04:04:35
040430,11.6245, 25 Oct 2015, 04:05:04
040500,11.6269, 25 Oct 2015, 04:05:34
040530,11.6295, 25 Oct 2015, 04:06:04
040600,11.6336, 25 Oct 2015, 04:06:35
040700,11.6433, 25 Oct 2015, 04:07:34
040730,11.6453, 25 Oct 2015, 04:08:04
040800,11.6465, 25 Oct 2015, 04:08:34
040830,11.6478, 25 Oct 2015, 04:09:04
040900,11.6506, 25 Oct 2015, 04:09:34
040930,11.6548, 25 Oct 2015, 04:10:04
041000,11.6598, 25 Oct 2015, 04:10:34
041030,11.6661, 25 Oct 2015, 04:11:05
041100,11.6716, 25 Oct 2015, 04:11:34
041130,11.6747, 25 Oct 2015, 04:12:04
041200,11.6755, 25 Oct 2015, 04:12:34
041230,11.6744, 25 Oct 2015, 04:13:05
041300,11.6724, 25 Oct 2015, 04:13:34
041330,11.6698, 25 Oct 2015, 04:14:04
041400,11.6673, 25 Oct 2015, 04:14:34
041430,11.6643, 25 Oct 2015, 04:15:04
041500,11.6607, 25 Oct 2015, 04:15:34
041530,11.6562, 25 Oct 2015, 04:16:04
041600,11.6504, 25 Oct 2015, 04:16:34
041630,11.6449, 25 Oct 2015, 04:17:04
041700,11.6421, 25 Oct 2015, 04:17:34
041730,11.6415, 25 Oct 2015, 04:18:04
041800,11.6417, 25 Oct 2015, 04:18:34
041830,11.6415, 25 Oct 2015, 04:19:04
041900,11.6415, 25 Oct 2015, 04:19:34
041930,11.6428, 25 Oct 2015, 04:20:04
042000,11.6447, 25 Oct 2015, 04:20:34
042030,11.6475, 25 Oct 2015, 04:21:04
042100,11.6498, 25 Oct 2015, 04:21:33
042130,11.6522, 25 Oct 2015, 04:22:04
042200,11.6552, 25 Oct 2015, 04:22:34
042230,11.6567, 25 Oct 2015, 04:23:04
042330,11.6635, 25 Oct 2015, 04:24:04
042400,11.6674, 25 Oct 2015, 04:24:34
042430,11.6722, 25 Oct 2015, 04:25:04
042500,11.6776, 25 Oct 2015, 04:25:34
042530,11.6825, 25 Oct 2015, 04:26:04
042600,11.6873, 25 Oct 2015, 04:26:34
042630,11.6924, 25 Oct 2015, 04:27:04
042700,11.6987, 25 Oct 2015, 04:27:33
042730,11.7073, 25 Oct 2015, 04:28:04
042800,11.7177, 25 Oct 2015, 04:28:34
042830,11.7291, 25 Oct 2015, 04:29:04
042900,11.7399, 25 Oct 2015, 04:29:33
042930,11.749, 25 Oct 2015, 04:30:03
043000,11.7581, 25 Oct 2015, 04:30:34
043030,11.7666, 25 Oct 2015, 04:31:04
043130,11.7928, 25 Oct 2015, 04:32:03
043200,11.8126, 25 Oct 2015, 04:32:34
043230,11.8353, 25 Oct 2015, 04:33:04
043300,11.859, 25 Oct 2015, 04:33:34
043330,11.8835, 25 Oct 2015, 04:34:03
043400,11.9145, 25 Oct 2015, 04:34:34
043430,11.9516, 25 Oct 2015, 04:35:04
043500,11.9919, 25 Oct 2015, 04:35:34
043530,12.0328, 25 Oct 2015, 04:36:03
043600,12.0751, 25 Oct 2015, 04:36:34
043630,12.1145, 25 Oct 2015, 04:37:04
043700,12.1521, 25 Oct 2015, 04:37:34
043730,12.1913, 25 Oct 2015, 04:38:04
043800,12.2284, 25 Oct 2015, 04:38:34
043830,12.2667, 25 Oct 2015, 04:39:05
043900,12.3066, 25 Oct 2015, 04:39:35
043930,12.3502, 25 Oct 2015, 04:40:04
044000,12.4006, 25 Oct 2015, 04:40:34
044030,12.4489, 25 Oct 2015, 04:41:05
044100,12.4932, 25 Oct 2015, 04:41:35
044130,12.5341, 25 Oct 2015, 04:42:04
044200,12.5742, 25 Oct 2015, 04:42:34
044230,12.6133, 25 Oct 2015, 04:43:05
044300,12.6499, 25 Oct 2015, 04:43:35
044330,12.6843, 25 Oct 2015, 04:44:04
044400,12.7174, 25 Oct 2015, 04:44:34
044430,12.7492, 25 Oct 2015, 04:45:04
044500,12.7825, 25 Oct 2015, 04:45:35
044530,12.8142, 25 Oct 2015, 04:46:04
044600,12.8474, 25 Oct 2015, 04:46:34
044630,12.8805, 25 Oct 2015, 04:47:04
044730,12.9332, 25 Oct 2015, 04:48:04
044800,12.9519, 25 Oct 2015, 04:48:34
044830,12.9675, 25 Oct 2015, 04:49:04
044900,12.984, 25 Oct 2015, 04:49:35
044930,13.0018, 25 Oct 2015, 04:50:04
045000,13.0212, 25 Oct 2015, 04:50:34
045030,13.0432, 25 Oct 2015, 04:51:04
045100,13.0671, 25 Oct 2015, 04:51:35
045130,13.0901, 25 Oct 2015, 04:52:04
045200,13.1141, 25 Oct 2015, 04:52:34
045230,13.1386, 25 Oct 2015, 04:53:04
045300,13.167, 25 Oct 2015, 04:53:34
045330,13.1989, 25 Oct 2015, 04:54:05
045400,13.2279, 25 Oct 2015, 04:54:34
045430,13.2587, 25 Oct 2015, 04:55:04
045500,13.2901, 25 Oct 2015, 04:55:34
045530,13.3217, 25 Oct 2015, 04:56:05
045600,13.3525, 25 Oct 2015, 04:56:34
045630,13.3848, 25 Oct 2015, 04:57:04
045700,13.4138, 25 Oct 2015, 04:57:34
045800,13.4572, 25 Oct 2015, 04:58:34
045830,13.477, 25 Oct 2015, 04:59:04
045900,13.4953, 25 Oct 2015, 04:59:34
045930,13.5115, 25 Oct 2015, 05:00:04
050000,13.5265, 25 Oct 2015, 05:00:34
050030,13.5414, 25 Oct 2015, 05:01:04
050100,13.5562, 25 Oct 2015, 05:01:34
050130,13.5716, 25 Oct 2015, 05:02:04
050230,13.6018, 25 Oct 2015, 05:03:04
050300,13.616, 25 Oct 2015, 05:03:34
050330,13.6281, 25 Oct 2015, 05:04:04
050400,13.6397, 25 Oct 2015, 05:04:34
050430,13.6508, 25 Oct 2015, 05:05:04
050500,13.6626, 25 Oct 2015, 05:05:34
050530,13.6747, 25 Oct 2015, 05:06:04
050600,13.6879, 25 Oct 2015, 05:06:34
050630,13.7014, 25 Oct 2015, 05:07:03
050700,13.7169, 25 Oct 2015, 05:07:34
050730,13.7331, 25 Oct 2015, 05:08:04
050800,13.7481, 25 Oct 2015, 05:08:34
050830,13.7637, 25 Oct 2015, 05:09:03
050900,13.7803, 25 Oct 2015, 05:09:34
050930,13.7956, 25 Oct 2015, 05:10:04
051000,13.8099, 25 Oct 2015, 05:10:34
051030,13.825, 25 Oct 2015, 05:11:03
051100,13.8411, 25 Oct 2015, 05:11:34
051130,13.8566, 25 Oct 2015, 05:12:04
051200,13.8707, 25 Oct 2015, 05:12:34
051230,13.8829, 25 Oct 2015, 05:13:03
051300,13.8962, 25 Oct 2015, 05:13:33
051330,13.9106, 25 Oct 2015, 05:14:04
051400,13.9243, 25 Oct 2015, 05:14:34
051430,13.939, 25 Oct 2015, 05:15:04
051500,13.9537, 25 Oct 2015, 05:15:33
051530,13.9711, 25 Oct 2015, 05:16:04
051600,13.9899, 25 Oct 2015, 05:16:34
051630,14.0109, 25 Oct 2015, 05:17:04
051700,14.033, 25 Oct 2015, 05:17:34
051730,14.0553, 25 Oct 2015, 05:18:05
051800,14.0781, 25 Oct 2015, 05:18:35
051900,14.1284, 25 Oct 2015, 05:19:34